Starlink 35180

operational
NORAD ID: 65462 Int'l Des: 2025-195 Owner: SPXS Country: US Constellation: starlink
LEOCIRCULAR

About Starlink 35180

Description loading...

Live Position

Loading 3D Globe...

Upcoming Passes

Altitude History

Altitude vs Time

uPlot chart will show altitude changes over time

Two-Line Element Set

1 65462U 25195E 25293.89746160 .00080889 00000-0 20105-2 0 9990
2 65462 53.1606 189.4396 0001505 10.1741 349.9294 15.39625271 8561
Epoch: Oct 20, 2025 • Age: 15 hours

Current Status

Altitude 463.5 km
Velocity 7.63 km/s
Sub-Earth Point -46.72°S, 160.74°W
Launch Date Sep 3, 2025
Age 0.1 years
Type internet

Technical Details

Classification Payload
Mass 575.00 kg
Dry Mass 530.00 kg
Total Mass 575.00 kg
Length 0.30 m
Diameter 4.10 m
Span 29.00 m
Shape Box + pan
Manufacturer SPXS
Bus Type Starlink V2MO
Phase Status In Orbit
Owner/State SPXS/US

Large Constellations

Loading constellations...